Temp
4 4 4 4 4 4 4 5 5 5 6 5 6 6 6 7 7 7 7 7 7 8 8 8 8 8 8 8 8 7 7 8 8 7 7 8 8 9 8 8 8 9 9 9 9
3 3 4 3 4 4 4 4 4 4 5 5 5 5 5 6 7 7 7 7 7 7 7 7 8 8 7 7 7 7 7 7 7 7 7 7 7 8 9 8 8 8 8 9 9
3 3 3 3 3 3 3 4 4 4 4 4 5 5 5 5 6 6 6 6 6 7 7 7 7 7 7 7 6 7 7 7 7 6 7 7 7 8 8 8 8 8 9 8 8
3 3 2 3 3 3 2 3 3 4 4 4 4 4 5 5 5 5 6 6 6 6 6 6 7 7 7 7 6 7 7 7 7 6 7 8 8 8 8 7 7 7 6 7 8
2 2 3 3 2 3 2 2 3 3 3 4 4 4 5 5 5 5 5 5 5 5 6 6 6 7 7 7 6 6 7 6 6 7 7 7 7 7 6 6 6 6 6 5 5
2 2 2 2 1 2 2 2 2 3 3 3 4 4 4 5 5 5 5 5 5 5 5 5 5 6 6 6 6 6 6 7 7 7 6 6 6 6 5 6 5 5 5 5 5
2 3 2 1 2 2 1 2 2 2 3 3 3 4 4 4 4 4 5 5 4 4 4 5 4 4 5 5 5 5 6 6 7 7 6 5 6 5 5 5 5 5 5 4 4
3 2 3 2 2 1 1 2 1 2 1 2 3 4 4 4 4 5 5 5 5 4 4 4 4 4 4 5 5 5 5 6 6 6 6 5 5 4 4 4 4 4 4 4 4
2 2 2 2 2 1 1 1 1 1 1 2 2 3 4 4 4 4 4 5 5 5 4 4 4 4 4 4 5 4 5 5 5 5 5 4 5 5 4 4 5 5 5 4 4
1 1 1 1 1 0 0 0 0 1 1 1 1 2 3 4 4 4 4 4 4 5 4 4 3 4 4 4 5 3 3 4 5 4 4 4 4 4 4 4 4 4 4 4 4
0 0 1 0 0 0 0 -0 -0 -0 1 1 1 2 2 3 4 3 3 3 3 4 4 3 3 4 3 2 3 3 3 3 4 4 4 3 3 3 3 3 3 3 3 3 3
-1 -0 -0 -0 -0 -1 -1 -1 -1 -1 -0 -0 -0 0 1 1 2 3 2 2 3 3 3 2 3 4 3 2 2 2 2 3 3 4 3 3 3 2 2 2 2 2 2 2 2
-1 -1 -1 -1 -1 -1 -1 -1 -1 -1 -1 1 0 0 1 0 1 1 1 2 2 2 3 3 3 2 2 2 2 2 2 3 2 3 3 3 2 2 1 -0 0 1 1 2 2
-2 -1 -1 -1 -1 -1 -1 -2 -2 -1 -3 0 2 2 2 1 1 0 1 1 1 2 2 1 3 2 1 1 2 2 2 2 2 2 2 2 0 -0 -2 -2 -1 -0 0 1 2
-2 -1 -2 -2 -2 -2 -2 -2 -3 -4 -5 1 1 1 1 2 2 2 2 1 1 1 1 2 1 2 1 1 2 2 1 1 1 1 1 2 1 -1 -2 -1 -1 -0 0 1 1
-3 -2 -2 -2 -2 -2 -3 -4 -4 -5 -5 -1 -1 -0 -0 0 0 0 1 -1 -0 0 0 1 1 1 1 1 1 1 1 1 1 1 -2 1 0 -2 -2 -1 -1 -0 -0 -0 0
-3 -3 -2 -2 -2 -3 -4 -5 -6 -5 -3 -1 -1 -2 -1 0 1 -1 -0 -1 -1 -1 -1 -0 1 1 0 0 1 0 0 -0 -2 -2 -2 1 1 -2 -1 -1 -2 -2 -1 -1 -0
-3 -3 -3 -3 -3 -4 -5 -8 -6 -4 -3 -1 -1 -1 -1 -0 0 -1 -1 -1 -2 -1 0 -0 0 1 0 0 1 0 0 -0 -1 -2 -2 1 -2 -5 -3 -3 -3 -2 -1 -1 -1
-3 -3 -3 -3 -4 -6 -7 -8 -6 -4 -2 -1 -1 -2 -2 -1 -1 -1 -1 -1 -1 -1 -1 0 0 1 0 1 0 -0 0 -0 0 0 -2 -2 -5 -6 -4 -4 -3 -3 -2 -2 -2
-3 -3 -3 -4 -5 -7 -8 -8 -5 -2 -2 -3 -3 -2 -2 -2 -2 -2 -1 -1 -1 -1 -1 -0 0 1 0 0 -0 0 -0 -0 -0 -2 -2 -4 -5 -4 -5 -4 -3 -3 -3 -3 -3
-4 -3 -2 -4 -6 -7 -8 -6 -4 -4 -5 -4 -3 -3 -2 -2 -2 -2 -1 -1 -1 -0 -1 -1 -1 -0 -0 -0 1 -0 -0 -1 -0 -1 -4 -6 -5 -3 -4 -3 -3 -3 -3 -3 -3
-3 -3 -3 -3 -7 -7 -7 -5 -6 -5 -5 -5 -4 -3 -3 -2 -2 -2 -1 -1 -1 -1 -1 -1 -1 -1 -1 0 1 -0 -0 -1 -1 -2 -2 -3 -4 -2 -4 -4 -3 -4 -4 -4 -4
-3 -3 -4 -4 -5 -7 -7 -7 -7 -6 -6 -6 -5 -4 -3 -3 -4 -2 -2 -2 -1 -1 -1 -1 -1 -1 -1 -1 -1 -1 -1 -1 -1 -1 -2 -5 -4 -4 -4 -4 -4 -4 -5 -5 -5
-6 -6 -7 -6 -5 -5 -7 -8 -7 -7 -7 -5 -4 -4 -4 -3 -3 -3 -3 -2 -2 -2 -2 -1 -2 -2 -1 -1 -1 -1 -1 -2 -2 -2 -3 -2 -2 -3 -5 -4 -5 -5 -5 -5 -6
-6 -5 -6 -6 -7 -7 -7 -7 -7 -7 -7 -6 -5 -5 -4 -4 -4 -4 -2 -2 -3 -2 -2 -3 -3 -2 -2 -1 -1 -1 -2 -2 -3 -3 -3 -3 -4 -4 -5 -5 -5 -5 -5 -6 -6
-6 -6 -7 -7 -7 -6 -7 -7 -7 -7 -6 -6 -5 -4 -4 -3 -3 -3 -3 -2 -2 -4 -3 -5 -3 -2 -2 -2 -2 -2 -2 -3 -3 -3 -4 -4 -5 -5 -5 -4 -5 -5 -6 -6 -6
-7 -7 -7 -7 -7 -6 -6 -6 -7 -6 -6 -5 -4 -4 -4 -3 -3 -3 -3 -3 -4 -5 -5 -5 -5 -3 -2 -2 -2 -3 -2 -2 -3 -3 -4 -4 -4 -5 -6 -5 -5 -5 -6 -7 -7
Height
3152 3152 3152 3154 3153 3153 3152 3152 3151 3150 3149 3148 3148 3148 3149 3149 3149 3148 3149 3149 3149 3149 3149 3148 3149 3149 3149 3149 3148 3148 3150 3149 3151 3154 3154 3154 3154 3157 3158 3158 3156 3155 3155 3153 3153
3149 3149 3148 3149 3149 3150 3148 3148 3148 3147 3146 3145 3144 3143 3146 3147 3148 3147 3147 3147 3146 3146 3146 3146 3146 3147 3148 3147 3147 3147 3147 3148 3150 3151 3150 3150 3151 3153 3155 3156 3154 3154 3154 3153 3151
3144 3145 3145 3144 3144 3145 3145 3146 3145 3144 3144 3143 3141 3140 3141 3144 3145 3143 3144 3144 3143 3144 3144 3144 3143 3145 3146 3145 3145 3146 3145 3147 3148 3149 3147 3147 3149 3150 3152 3151 3148 3148 3147 3147 3142
3139 3140 3139 3139 3141 3141 3142 3143 3142 3141 3141 3141 3140 3138 3138 3141 3145 3141 3141 3141 3141 3141 3141 3142 3141 3142 3143 3142 3141 3142 3142 3143 3144 3144 3145 3147 3147 3147 3148 3144 3143 3142 3135 3135 3136
3132 3133 3134 3134 3134 3134 3137 3139 3138 3137 3137 3137 3138 3137 3137 3138 3140 3140 3140 3139 3139 3138 3138 3138 3138 3138 3139 3139 3139 3139 3140 3140 3140 3141 3143 3144 3146 3144 3144 3143 3138 3132 3132 3132 3133
3124 3126 3128 3128 3130 3131 3132 3133 3134 3134 3133 3133 3134 3135 3136 3137 3136 3137 3137 3136 3137 3136 3136 3135 3136 3135 3134 3135 3136 3136 3137 3137 3137 3139 3139 3140 3142 3142 3141 3134 3133 3131 3131 3132 3132
3117 3119 3121 3122 3123 3125 3127 3128 3129 3128 3129 3129 3129 3130 3133 3134 3132 3133 3133 3133 3133 3133 3133 3132 3133 3132 3131 3132 3132 3132 3133 3133 3134 3134 3134 3137 3141 3140 3134 3133 3133 3132 3131 3131 3130
3110 3112 3113 3115 3116 3118 3120 3122 3123 3124 3122 3125 3124 3127 3128 3128 3127 3128 3130 3130 3130 3129 3129 3129 3130 3128 3127 3128 3128 3128 3129 3130 3131 3131 3134 3136 3137 3132 3130 3131 3130 3130 3129 3127 3126
3102 3104 3106 3108 3110 3112 3113 3115 3116 3118 3117 3120 3119 3121 3122 3124 3123 3124 3125 3126 3126 3127 3126 3125 3126 3125 3125 3125 3125 3125 3125 3127 3129 3130 3132 3132 3130 3128 3127 3125 3125 3126 3125 3124 3123
3093 3096 3099 3101 3102 3103 3105 3107 3109 3112 3113 3115 3113 3120 3117 3119 3118 3120 3122 3122 3123 3123 3123 3123 3124 3121 3121 3121 3121 3122 3124 3124 3126 3129 3129 3130 3127 3123 3121 3120 3120 3120 3119 3119 3119
3086 3089 3091 3094 3094 3096 3098 3099 3104 3107 3106 3109 3109 3110 3108 3112 3113 3115 3116 3118 3119 3119 3119 3119 3118 3118 3119 3117 3117 3119 3121 3122 3124 3125 3126 3124 3121 3119 3117 3115 3116 3115 3115 3115 3114
3080 3082 3086 3086 3089 3090 3090 3091 3094 3100 3098 3100 3102 3099 3106 3105 3103 3107 3111 3114 3114 3115 3115 3115 3112 3116 3114 3113 3114 3115 3117 3119 3121 3121 3123 3121 3114 3109 3107 3110 3111 3110 3110 3110 3109
3072 3075 3078 3081 3083 3083 3084 3087 3091 3094 3094 3089 3095 3092 3099 3101 3095 3099 3104 3106 3108 3108 3109 3108 3110 3110 3110 3110 3110 3111 3113 3115 3116 3117 3119 3117 3110 3105 3104 3105 3108 3107 3106 3105 3103
3066 3067 3070 3075 3078 3078 3081 3085 3084 3087 3089 3079 3083 3084 3089 3096 3086 3089 3097 3101 3100 3102 3106 3102 3103 3104 3106 3105 3107 3107 3111 3110 3112 3114 3115 3114 3108 3099 3100 3102 3104 3103 3102 3099 3097
3060 3061 3065 3068 3069 3074 3077 3078 3079 3084 3090 3080 3074 3077 3077 3083 3084 3082 3089 3090 3091 3094 3099 3096 3096 3099 3099 3100 3102 3102 3105 3106 3108 3109 3110 3112 3109 3096 3096 3099 3100 3099 3097 3095 3091
3054 3053 3058 3061 3065 3069 3070 3072 3077 3084 3078 3073 3069 3071 3073 3075 3078 3081 3081 3084 3087 3088 3090 3089 3092 3093 3097 3097 3097 3099 3100 3102 3103 3105 3103 3100 3102 3092 3093 3095 3095 3095 3092 3090 3086
3047 3049 3051 3054 3059 3063 3063 3069 3077 3075 3070 3067 3067 3068 3070 3071 3074 3078 3077 3075 3077 3081 3080 3084 3084 3087 3090 3093 3093 3094 3096 3098 3100 3102 3097 3095 3095 3088 3089 3091 3092 3091 3088 3085 3082
3041 3043 3044 3047 3051 3054 3057 3063 3065 3060 3062 3064 3065 3064 3063 3065 3066 3072 3074 3073 3075 3077 3077 3078 3080 3080 3080 3084 3087 3088 3090 3092 3093 3096 3093 3092 3088 3084 3086 3089 3089 3087 3085 3081 3078
3032 3035 3037 3040 3043 3046 3050 3055 3053 3052 3054 3056 3061 3060 3059 3060 3063 3066 3066 3066 3069 3073 3077 3075 3074 3074 3074 3079 3082 3083 3084 3089 3089 3091 3092 3090 3088 3086 3085 3086 3087 3085 3080 3078 3076
3023 3026 3028 3033 3035 3038 3043 3041 3038 3041 3049 3052 3053 3056 3055 3056 3059 3060 3062 3061 3063 3067 3072 3073 3073 3072 3073 3075 3077 3080 3083 3084 3086 3088 3089 3086 3084 3083 3083 3084 3082 3080 3078 3075 3072
3013 3015 3016 3023 3024 3030 3025 3016 3023 3033 3042 3047 3047 3049 3050 3053 3054 3055 3057 3058 3058 3058 3066 3069 3073 3073 3071 3068 3069 3075 3077 3079 3082 3082 3083 3086 3080 3081 3083 3081 3078 3077 3074 3071 3068
3003 3004 3002 3009 3016 3012 3006 3011 3023 3026 3034 3038 3042 3042 3045 3047 3049 3049 3050 3054 3053 3053 3060 3064 3067 3068 3066 3069 3069 3069 3072 3076 3075 3079 3080 3080 3077 3078 3079 3076 3074 3073 3071 3068 3065
2991 2994 2990 2993 2994 2992 2998 3003 3012 3020 3024 3029 3032 3036 3039 3041 3043 3043 3046 3050 3052 3052 3054 3060 3063 3064 3065 3067 3065 3064 3066 3070 3073 3075 3076 3078 3075 3074 3075 3073 3072 3070 3069 3066 3063
2983 2983 2986 2978 2978 2981 2987 2991 2997 3009 3015 3022 3026 3032 3034 3033 3035 3037 3042 3044 3047 3049 3052 3055 3057 3060 3059 3058 3062 3062 3063 3067 3070 3072 3071 3071 3070 3071 3069 3069 3069 3068 3067 3064 3059
2974 2970 2969 2966 2969 2973 2981 2985 2989 2995 3006 3016 3019 3021 3026 3029 3030 3033 3036 3038 3040 3043 3049 3051 3055 3057 3057 3057 3058 3059 3059 3063 3066 3067 3067 3068 3068 3067 3066 3066 3066 3064 3063 3060 3056
2964 2962 2961 2962 2964 2969 2971 2972 2981 2990 2999 3004 3009 3015 3020 3021 3023 3025 3028 3031 3033 3039 3042 3044 3049 3053 3055 3056 3057 3058 3058 3061 3063 3063 3063 3065 3065 3063 3062 3062 3062 3060 3059 3056 3052
2957 2957 2958 2959 2961 2964 2963 2971 2979 2990 2996 3001 3006 3011 3013 3016 3022 3026 3028 3030 3031 3034 3039 3042 3046 3050 3051 3052 3054 3055 3054 3056 3058 3060 3061 3061 3060 3060 3059 3058 3059 3058 3056 3053 3049
Wind_Speed
20 19 18 20 20 21 18 20 19 18 17 15 15 14 12 10 9 8 8 9 9 10 9 8 7 7 8 10 11 13 11 11 11 7 10 12 14 11 5 3 5 7 11 16 19
24 24 21 21 22 23 20 20 19 17 16 15 16 14 13 11 9 8 9 10 10 9 9 8 8 7 9 11 13 13 13 9 8 8 16 18 21 18 15 10 14 10 12 19 23
25 23 27 28 21 23 22 21 19 17 14 14 15 15 13 12 11 11 8 8 5 4 5 5 6 5 7 9 11 14 15 8 8 15 20 22 22 23 22 23 23 22 25 21 28
29 27 26 24 25 26 25 22 19 16 16 15 16 14 13 12 8 5 5 6 7 8 9 11 12 13 11 10 16 17 15 15 16 20 22 23 24 26 20 18 18 12 17 21 20
33 30 29 21 20 21 24 24 19 17 16 14 17 14 13 11 13 12 12 13 11 11 11 11 13 12 11 10 14 20 17 20 20 21 22 22 19 18 5 5 5 13 14 15 17
33 31 30 27 24 22 19 19 23 22 20 20 18 17 13 10 11 12 12 14 13 14 14 13 13 11 13 12 14 16 17 18 21 23 24 21 15 8 4 11 13 14 16 15 14
31 31 31 31 32 27 24 24 22 23 24 26 22 19 17 14 9 8 13 15 15 15 17 14 12 12 13 10 14 12 12 12 10 10 17 10 4 2 11 10 10 14 16 17 20
31 31 31 32 31 29 29 24 21 24 27 29 26 22 20 17 16 13 15 16 17 16 15 16 13 12 13 11 12 10 10 0 4 4 6 5 3 12 17 18 19 19 21 23 26
33 31 32 32 30 30 29 30 28 30 30 28 26 23 22 20 14 11 8 10 12 13 15 15 13 11 12 11 10 6 5 4 5 3 1 11 9 14 18 21 23 24 28 27 27
35 33 32 32 33 34 37 32 33 30 32 27 33 30 24 21 14 8 9 15 14 13 12 12 14 14 13 11 4 6 4 7 10 7 6 7 16 17 22 25 27 30 32 28 30
33 32 31 31 33 34 34 36 34 31 34 38 30 28 29 22 23 20 20 18 17 15 14 13 17 17 7 10 10 11 13 12 11 11 7 8 16 21 24 25 24 26 28 30 29
31 30 29 30 28 31 34 36 36 33 37 31 36 38 33 33 31 26 21 19 20 17 16 20 23 9 12 13 12 13 15 16 16 12 10 9 17 21 23 24 25 23 25 24 23
27 27 29 27 28 29 30 31 31 34 40 51 41 41 32 31 35 31 25 22 21 20 22 26 15 12 9 12 15 16 17 17 13 15 16 16 20 26 25 19 14 15 17 18 23
24 25 25 23 28 27 26 22 26 26 22 43 44 51 44 36 40 37 31 27 26 24 20 22 23 24 20 19 18 21 20 14 12 13 12 11 7 24 21 13 15 17 19 22 24
25 27 24 23 24 20 19 19 19 14 1 14 16 24 27 36 42 37 29 32 33 27 23 19 13 18 24 25 21 21 17 19 19 16 15 19 13 13 22 19 18 18 19 19 21
27 30 28 27 25 21 20 16 14 10 10 9 14 15 18 22 31 25 20 30 25 24 27 30 20 14 19 23 22 17 16 15 18 16 7 23 22 8 17 19 18 15 17 19 23
27 29 31 29 26 20 20 18 12 10 14 20 19 16 17 19 25 21 24 36 31 25 34 31 32 26 19 17 15 15 10 2 1 4 5 7 12 13 12 11 12 13 16 20 24
24 27 31 30 27 24 23 18 10 20 33 14 9 21 26 27 27 29 24 38 36 24 8 20 12 31 30 31 20 20 20 8 4 3 3 7 5 8 11 7 7 13 17 21 22
28 31 35 33 30 26 25 26 22 33 34 35 33 18 27 28 25 30 32 38 39 35 20 9 14 15 21 26 21 14 24 15 7 9 2 5 4 8 10 10 11 14 17 18 19
32 34 38 35 33 29 33 36 40 41 37 17 24 25 20 29 26 27 24 30 40 34 33 16 7 13 20 16 22 13 18 12 8 2 4 5 5 7 9 8 12 13 15 16 18
34 38 43 37 33 37 45 53 49 46 39 36 29 20 23 26 32 33 25 23 13 23 27 33 15 12 23 21 23 23 17 8 10 5 4 1 4 10 11 11 13 17 17 16 17
35 41 45 43 39 48 55 56 48 44 42 41 36 34 33 22 29 37 32 28 17 23 26 31 18 15 26 18 16 13 24 23 10 5 4 2 6 13 13 10 14 16 18 18 17
34 40 43 47 47 55 56 56 52 46 44 34 34 33 30 36 16 34 37 28 25 19 22 28 19 10 12 17 15 17 18 23 21 15 7 4 6 8 8 13 14 13 14 15 16
26 27 35 45 50 52 53 53 56 50 41 30 34 33 22 24 36 21 22 31 28 21 23 25 22 21 21 18 22 16 17 19 20 12 10 16 18 18 14 13 13 13 12 13 16
33 37 39 50 56 47 46 47 49 48 53 40 36 36 36 23 28 30 28 33 27 28 25 19 22 22 9 9 24 22 22 19 17 15 12 16 17 12 12 14 10 13 14 15 18
41 40 26 38 55 50 52 47 45 47 41 46 43 33 30 37 38 34 36 36 35 26 26 23 20 19 18 10 11 19 17 14 15 15 16 14 14 10 12 12 11 13 14 16 20
35 22 21 40 33 44 48 48 40 35 37 37 38 36 38 38 34 35 34 27 27 31 25 20 22 16 13 13 12 12 18 17 21 19 14 15 11 12 14 13 12 14 14 16 19
Wind_Direction
278 279 283 286 288 285 294 302 305 300 291 285 282 281 281 281 284 289 290 279 279 282 276 271 272 279 270 231 208 204 228 238 230 244 291 291 288 270 284 160 226 213 210 243 253
274 280 277 280 286 285 291 296 303 302 293 282 275 276 282 280 282 288 278 278 271 274 274 274 271 261 238 233 207 212 232 245 231 244 279 290 293 290 273 252 250 232 251 265 256
274 273 282 277 280 285 283 286 292 294 291 286 279 277 278 280 275 271 276 264 256 268 281 281 270 264 233 222 207 223 240 227 214 284 273 277 288 297 303 295 289 278 273 262 248
267 272 273 271 281 277 276 281 282 284 282 284 292 294 280 277 279 254 212 241 273 273 271 275 271 266 256 244 216 231 240 242 242 259 272 272 281 292 298 295 295 293 256 263 258
265 264 269 264 266 269 270 275 273 270 275 285 295 301 304 287 268 266 270 276 276 279 277 275 272 273 267 246 229 238 246 240 254 258 264 275 273 289 289 304 251 248 255 269 278
264 266 266 264 266 264 264 269 271 268 267 274 286 295 302 309 296 287 272 270 278 280 281 271 265 260 259 263 254 252 261 260 258 259 263 269 275 283 319 247 231 247 258 262 266
261 264 262 263 266 261 261 270 268 260 266 265 274 284 282 285 288 302 286 278 277 276 276 273 261 256 265 264 259 267 268 268 281 265 248 225 208 144 245 230 225 242 256 271 279
261 260 262 262 260 256 254 262 262 260 265 267 266 270 277 274 283 282 284 289 281 272 268 273 265 257 258 255 259 267 279 141 103 95 160 162 100 218 238 248 260 267 275 281 283
255 254 255 258 256 252 250 252 263 263 263 259 266 264 271 275 268 272 276 287 289 278 264 259 262 259 259 256 262 241 187 236 159 122 98 178 210 229 248 260 268 275 280 282 285
256 255 252 250 252 250 248 251 256 249 259 259 270 265 262 262 261 251 272 285 279 268 260 256 256 250 246 245 219 186 228 208 213 183 275 233 232 238 251 259 267 276 280 285 285
257 258 257 254 251 252 252 246 249 254 258 256 259 267 260 254 263 270 276 280 266 260 262 253 245 251 230 224 238 251 256 261 244 283 256 205 236 246 255 265 272 274 273 272 271
261 261 261 260 259 255 254 248 246 249 255 256 258 249 250 262 263 258 266 269 267 268 252 247 255 239 220 234 251 252 252 261 277 272 254 252 268 273 272 274 273 271 268 270 276
258 259 260 263 260 255 255 260 264 262 260 256 250 255 252 245 262 263 265 261 261 253 250 252 254 210 231 237 244 250 258 269 274 257 267 267 267 262 263 262 257 262 271 280 282
254 254 255 255 257 260 261 258 258 264 271 266 262 258 251 249 261 263 261 256 249 255 250 254 251 234 246 251 248 257 261 257 259 250 253 232 269 248 248 253 261 272 285 293 299
258 259 258 254 255 255 254 247 246 245 289 268 259 249 249 240 251 259 260 244 243 246 232 234 234 232 234 247 254 257 253 249 252 253 258 242 259 231 237 249 260 274 288 306 317
255 259 259 259 259 258 255 243 211 174 232 253 260 251 236 229 229 233 228 224 236 233 232 236 217 232 244 249 252 244 248 256 251 253 251 250 224 229 232 245 260 282 301 315 325
251 255 259 259 259 251 244 229 176 207 229 251 241 241 250 241 235 227 227 209 208 211 230 235 237 232 235 232 228 221 236 287 106 193 218 221 212 242 215 234 262 295 318 325 323
247 246 253 252 252 248 234 200 196 225 224 234 236 248 238 242 237 216 221 213 212 222 223 231 239 228 223 229 227 228 209 181 216 204 246 266 220 246 252 259 291 315 315 318 324
245 242 246 253 247 236 217 200 215 227 244 235 234 270 238 231 230 212 216 220 220 219 222 221 239 245 229 233 218 200 213 223 239 275 244 225 225 256 263 269 294 306 318 321 323
248 246 246 248 244 223 209 219 231 252 240 222 237 236 234 222 216 208 210 230 229 230 231 227 273 229 197 199 197 192 200 186 196 174 244 216 216 218 225 265 305 315 318 322 328
247 246 250 241 232 206 214 234 241 243 234 225 231 232 242 235 230 222 219 227 234 228 217 226 241 203 198 198 197 201 196 193 196 205 185 271 235 219 233 280 305 318 320 322 328
246 246 250 247 217 217 233 236 233 241 241 240 242 242 243 232 235 227 225 226 227 219 212 223 231 227 210 218 230 223 226 208 199 195 205 238 258 262 274 285 308 314 316 321 331
248 247 250 250 234 226 234 233 234 238 237 238 231 232 239 240 228 230 224 226 232 215 218 207 214 220 200 218 225 212 214 219 215 223 220 166 260 252 263 295 300 301 301 313 324
238 227 219 222 250 244 228 224 230 230 226 227 231 229 234 239 224 221 222 217 228 211 213 216 222 224 223 218 196 200 201 210 217 207 219 235 262 275 274 279 292 286 295 319 330
234 227 225 218 224 234 234 227 222 228 225 228 233 229 228 231 212 213 209 207 212 222 218 209 221 229 227 208 206 227 207 200 211 232 233 262 259 259 268 279 292 294 305 322 327
225 229 221 214 212 217 216 223 223 224 221 216 222 221 229 226 221 212 214 214 213 205 209 212 223 240 224 210 200 205 207 216 235 239 249 248 253 256 260 278 295 302 314 312 320
225 257 246 218 221 209 214 217 218 224 218 228 223 228 227 227 228 227 221 211 206 204 213 232 208 213 201 205 200 206 222 233 238 240 240 244 260 254 263 287 303 302 308 316 326